Regional Weather Roundup
Issued by NWS Sterling, VA

Home | Current Version | Previous Version | Graphics & Text | Print | Product List | Glossary On
Versions: 1 2 3 4 5 6 7 8 9 10 11 12 13 14 15 16 17 18 19 20 21 22 23 24 25 26 27 28 29 30 31 32 33 34 35 36 37 38 39 40 41 42 43 44 45 46 47 48 49 50
000
ASUS41 KLWX 301910
RWRLWX

REGIONAL WEATHER ROUNDUP
NATIONAL WEATHER SERVICE BALTIMORE MD/WASHINGTON DC
300 PM EDT SAT AUG 30 2014

Note: "FAIR" indicates few or no clouds below 12,000 feet
with no significant weather and/or obstructions to visibility.
 TC=TEMPERATURE CELSIUS

 * =Non NWS site. Station does not report precipitation (e.g. rain,
    snow, etc.), thunder, or fog.

DCZ001-MDZ009-015-VAZ040>042-051-053>054-302000-
WASHINGTON METRO

CITY           SKY/WX    TMP DP  RH WIND       PRES   REMARKS
WASHINGTON NAT MOSUNNY   85  68  56 S9        30.17F
DULLES         CLOUDY    79  69  71 S7        30.17F
ANDREWS AFB    MOSUNNY   83  70  64 S10       30.17F
QUANTICO       SUNNY     82  70  66 S7        30.17F
COLLEGE PARK*    N/A     86  68  54 S5        30.16F
LEESBURG*      CLOUDY    81  72  74 S8        30.18F
MANASSAS*      CLOUDY    81  72  74 S9        30.16F
GAITHERSBURG*  PTSUNNY   81  68  65 SE13      30.20F

$$

MDZ006>007-011-014-302000-
BALTIMORE METRO

CITY           SKY/WX    TMP DP  RH WIND       PRES   REMARKS
BWI AIRPORT    PTSUNNY   81  67  62 S9        30.17F
MD SCIENCE CTR   N/A     80  65  59 MISG      30.18F
MARTIN STATE   CLOUDY    81  66  61 SE12      30.20F
ANNAPOLIS      MOSUNNY   79  63  57 SE16      30.17F
FORT MEADE*    PTSUNNY   79  66  65 S7        30.19F

$$

MDZ012-015-019>023-302000-
MARYLAND EASTERN SHORE

CITY           SKY/WX    TMP DP  RH WIND       PRES   REMARKS
OCEAN CITY     MOSUNNY   79  65  62 SE8       30.21F
SALISBURY      MOSUNNY   85  64  49 S6        30.19F
BAY BRIDGE AP*   N/A     81  59  47 S9        30.18F
CAMBRIDGE*     PTSUNNY   82  61  47 S9        30.18F
EASTON*        MOSUNNY   84  64  51 SE7       30.22F

$$

MDZ017>025-302000-
SOUTHERN MARYLAND

CITY           SKY/WX    TMP DP  RH WIND       PRES   REMARKS
PATUXENT RIVER MOSUNNY   82  66  58 SE13G21   30.17F
ST INIGOES     SUNNY     83  67  58 S10       30.17F
LEONARDTOWN*   PTSUNNY   81  66  61 S9        30.18F

$$

MDZ003>005-302000-
NORTH CENTRAL MARYLAND

CITY           SKY/WX    TMP DP  RH WIND       PRES   REMARKS
FREDERICK*     CLOUDY    82  72  69 S6        30.19F
HAGERSTOWN APT CLOUDY    78  66  66 S10       30.16F
WESTMINSTER*   PTSUNNY   82  68  61 S8        30.18F

$$

MDZ501>502-302000-
WESTERN MARYLAND

CITY           SKY/WX    TMP DP  RH WIND       PRES   REMARKS
OAKLAND*       PTSUNNY   77  61  57 SW3       30.23S
CUMBERLAND*    SUNNY     95  63  34 S3        30.13F HX  96

$$

VAZ025>031-302000-
SHENANDOAH VALLEY

CITY           SKY/WX    TMP DP  RH WIND       PRES   REMARKS
WINCHESTER*    SUNNY     82  68  61 SE9       30.15F
STAUNTON*      SUNNY     86  68  55 S12G17    30.18F

$$

WVZ021-048>050-054>055-302000-
EASTERN WEST VIRGINIA PANHANDLE

CITY           SKY/WX    TMP DP  RH WIND       PRES   REMARKS
MARTINSBURG    MOSUNNY   80  66  62 SE8       30.15F
PETERSBURG*    NOT AVBL

$$

VAZ036>039-050-302000-
CENTRAL FOOTHILLS

CITY           SKY/WX    TMP DP  RH WIND       PRES   REMARKS
CHARLOTTESVILL CLOUDY    80  70  71 VRB5      30.17F
ORANGE*        CLOUDY    81  70  69 S7        30.19F

$$

VAZ055>057-302000-
NORTH AND CENTRAL PIEDMONT

CITY           SKY/WX    TMP DP  RH WIND       PRES   REMARKS
FREDERICKSBRG* MOSUNNY   87  69  55 SE6       30.15F HX  90
STAFFORD*      MOSUNNY   82  70  67 SE3       30.20F

$$

NCZ024-NYZ072-PAZ021-071-VAZ022-071-302000-
OTHER REGIONAL OBSERVATIONS

CITY           SKY/WX    TMP DP  RH WIND       PRES   REMARKS
NEW YORK CITY  CLOUDY    76  60  57 CALM      30.23F
PHILADELPHIA   CLOUDY    79  60  52 S9        30.20F
PITTSBURGH     PTSUNNY   87  67  51 SW8       30.08F HX  90
ROANOKE        PTSUNNY   85  71  63 SE14      30.18F HX  90
RICHMOND       PTSUNNY   86  70  58 SE7       30.16F HX  90
RALEIGH        MOSUNNY   88  70  55 SE5       30.17F HX  93

$$

ANZ530>537-302000-
MARINE OBSERVATIONS

STATION/POSITION TIME  TEMP    WIND        PRES
                       AIR SEA DIR/SP/G
                 (UTC) (F)     (DEG/KT/KT) (MB)
THOMAS PT LIGHT  1900   77 78  170/ 13/ 14 1022.7F
BALT KEY BRIDGE  1900   83     120/  9/ 11 1021.6F
COVE POINT       1900   76     170/ 15/ 17 1021.9F
LEWISETTA        1900   80 79  140/ 10/ 12 1021.5F
SOLOMONS ISLAND  1900      79                N/A
PINEY POINT      1900          150/ 13/ 14   N/A

$$



USA.gov is the U.S. government's official web portal to all federal, state and local government web resources and services.